RYR1454 LGKR-EPGD

Flight info

Callsign RYR1454
Flight time 2h 32m
Altitude 36000
Route OLGAT DCT CRAYE DCT PINUK DCT KOFER DCT PARAK DCT BABKO Z169 POLON N133 GRUDA Z95 OSLOG
Aircraft B738/M-VGDW/C

Departure

Time 2026-04-28 09:23
Airport Corfu Ioannis Kapodistrias International Airport (LGKR)

Arrival

Time 2026-04-28 11:55
Airport Gdańsk Lech Wałęsa Airport (EPGD)
Time Latitude Longitude Altitude Speed Heading
2026-04-28 08:58 39.60706 19.91354 18 ft 0 kts 79°
2026-04-28 09:14 39.60703 19.91331 17 ft 4 kts 79°
2026-04-28 09:14 39.60698 19.91297 19 ft 4 kts 78°
2026-04-28 09:15 39.60692 19.91263 20 ft 4 kts 72°
2026-04-28 09:15 39.60681 19.91233 21 ft 4 kts 42°
2026-04-28 09:15 39.60664 19.91226 20 ft 4 kts 349°
2026-04-28 09:15 39.60649 19.91229 19 ft 1 kts 349°
2026-04-28 09:19 39.60656 19.91228 20 ft 2 kts 349°
2026-04-28 09:19 39.60664 19.91226 20 ft 1 kts 349°
2026-04-28 09:19 39.60680 19.91222 21 ft 5 kts 349°
2026-04-28 09:19 39.60728 19.91210 17 ft 10 kts 349°
2026-04-28 09:20 39.60806 19.91190 17 ft 13 kts 349°
2026-04-28 09:20 39.60892 19.91168 19 ft 12 kts 347°
2026-04-28 09:20 39.60975 19.91144 18 ft 12 kts 348°
2026-04-28 09:20 39.61057 19.91123 18 ft 12 kts 348°
2026-04-28 09:21 39.61136 19.91101 18 ft 11 kts 348°
2026-04-28 09:21 39.61207 19.91065 19 ft 11 kts 311°
2026-04-28 09:21 39.61215 19.90974 22 ft 11 kts 231°
2026-04-28 09:21 39.61174 19.90960 20 ft 0 kts 171°
2026-04-28 09:22 39.61173 19.90961 20 ft 2 kts 170°
2026-04-28 09:23 39.60940 19.91021 18 ft 74 kts 168°
2026-04-28 09:23 39.60184 19.91216 22 ft 144 kts 168°
2026-04-28 09:23 39.59014 19.91515 215 ft 188 kts 168°
2026-04-28 09:23 39.57691 19.91888 983 ft 198 kts 161°
2026-04-28 09:24 39.56500 19.92778 1775 ft 205 kts 137°
2026-04-28 09:24 39.55665 19.94309 2341 ft 213 kts 113°
2026-04-28 09:24 39.55334 19.96229 2824 ft 223 kts 94°
2026-04-28 09:24 39.55290 19.98246 3399 ft 230 kts 91°
2026-04-28 09:25 39.55319 20.00328 4027 ft 231 kts 89°
2026-04-28 09:25 39.55607 20.02318 4894 ft 224 kts 66°
2026-04-28 09:25 39.56512 20.03991 5425 ft 232 kts 43°
2026-04-28 09:25 39.57912 20.05054 5980 ft 237 kts 12°
2026-04-28 09:26 39.59547 20.04832 6485 ft 244 kts 333°
2026-04-28 09:26 39.60764 20.03356 7002 ft 245 kts 296°
2026-04-28 09:26 39.61208 20.01175 7270 ft 263 kts 270°
2026-04-28 09:26 39.61083 19.98687 7326 ft 287 kts 264°
2026-04-28 09:27 39.60668 19.93292 8310 ft 312 kts 270°
2026-04-28 09:27 39.61116 19.90613 9538 ft 297 kts 294°
2026-04-28 09:27 39.62206 19.88382 10586 ft 291 kts 309°
2026-04-28 09:28 39.63504 19.86355 11080 ft 305 kts 311°
2026-04-28 09:28 39.64950 19.84182 11257 ft 329 kts 311°
2026-04-28 09:28 39.66502 19.81859 11450 ft 350 kts 311°
2026-04-28 09:28 39.68142 19.79383 11606 ft 371 kts 311°
2026-04-28 09:29 39.69833 19.76810 11823 ft 387 kts 311°
2026-04-28 09:29 39.71595 19.74110 12354 ft 393 kts 311°
2026-04-28 09:29 39.73362 19.71390 13081 ft 394 kts 310°
2026-04-28 09:29 39.75137 19.68651 13753 ft 396 kts 310°
2026-04-28 09:30 39.76925 19.65887 14316 ft 400 kts 310°
2026-04-28 09:30 39.78698 19.63144 14904 ft 402 kts 310°
2026-04-28 09:30 39.80506 19.60348 15486 ft 404 kts 310°
2026-04-28 09:30 39.82324 19.57533 16068 ft 406 kts 310°
2026-04-28 09:31 39.84148 19.54707 16639 ft 408 kts 310°
2026-04-28 09:31 39.85992 19.51928 17164 ft 410 kts 313°
2026-04-28 09:31 39.87960 19.49209 17690 ft 413 kts 314°
2026-04-28 09:31 39.89980 19.46526 18206 ft 416 kts 315°
2026-04-28 09:32 39.92021 19.43839 18671 ft 418 kts 315°
2026-04-28 09:32 39.94071 19.41131 19098 ft 421 kts 315°
2026-04-28 09:32 39.96102 19.38428 19527 ft 423 kts 315°
2026-04-28 09:32 39.98170 19.35659 19959 ft 426 kts 314°
2026-04-28 09:33 40.00244 19.32870 20397 ft 428 kts 314°
2026-04-28 09:33 40.02321 19.30068 20807 ft 431 kts 314°
2026-04-28 09:33 40.04385 19.27279 21196 ft 434 kts 314°
2026-04-28 09:33 40.06496 19.24424 21595 ft 436 kts 314°
2026-04-28 09:34 40.08612 19.21558 21982 ft 438 kts 314°
2026-04-28 09:34 40.10741 19.18674 22367 ft 441 kts 314°
2026-04-28 09:34 40.12846 19.15818 22728 ft 443 kts 314°
2026-04-28 09:34 40.14995 19.12902 23080 ft 446 kts 314°
2026-04-28 09:35 40.17157 19.09964 23435 ft 448 kts 314°
2026-04-28 09:35 40.19330 19.07009 23764 ft 451 kts 314°
2026-04-28 09:35 40.21515 19.04034 24063 ft 453 kts 314°
2026-04-28 09:35 40.23735 19.01180 24367 ft 454 kts 319°
2026-04-28 09:36 40.26262 18.98700 24676 ft 455 kts 328°
2026-04-28 09:36 40.29055 18.96711 24983 ft 456 kts 333°
2026-04-28 09:36 40.31899 18.94820 25256 ft 458 kts 333°
2026-04-28 09:36 40.34750 18.92935 25531 ft 460 kts 333°
2026-04-28 09:37 40.37622 18.91027 25810 ft 462 kts 333°
2026-04-28 09:37 40.40452 18.89129 26084 ft 463 kts 332°
2026-04-28 09:37 40.43330 18.87184 26381 ft 463 kts 332°
2026-04-28 09:37 40.46187 18.85242 26779 ft 462 kts 332°
2026-04-28 09:38 40.49041 18.83295 27223 ft 459 kts 332°
2026-04-28 09:38 40.51847 18.81376 27628 ft 457 kts 332°
2026-04-28 09:38 40.54681 18.79436 28015 ft 457 kts 332°
2026-04-28 09:38 40.57469 18.77525 28370 ft 456 kts 332°
2026-04-28 09:39 40.60286 18.75594 28735 ft 455 kts 332°
2026-04-28 09:39 40.63099 18.73663 29123 ft 454 kts 332°
2026-04-28 09:39 40.65902 18.71738 29520 ft 453 kts 332°
2026-04-28 09:39 40.68706 18.69811 29922 ft 452 kts 332°
2026-04-28 09:40 40.71462 18.67915 30253 ft 451 kts 332°
2026-04-28 09:40 40.74254 18.65992 30532 ft 451 kts 332°
2026-04-28 09:40 40.77045 18.64069 30812 ft 451 kts 332°
2026-04-28 09:40 40.79800 18.62168 31122 ft 450 kts 332°
2026-04-28 09:41 40.82578 18.60249 31409 ft 449 kts 332°
2026-04-28 09:41 40.85362 18.58324 31694 ft 449 kts 332°
2026-04-28 09:41 40.88132 18.56408 31983 ft 448 kts 332°
2026-04-28 09:41 40.90857 18.54521 32276 ft 447 kts 332°
2026-04-28 09:42 40.93621 18.52605 32554 ft 447 kts 332°
2026-04-28 09:42 40.96384 18.50687 32840 ft 446 kts 332°
2026-04-28 09:42 40.99130 18.48780 33126 ft 445 kts 332°
2026-04-28 09:42 41.01873 18.46873 33412 ft 444 kts 332°
2026-04-28 09:43 41.04584 18.44987 33694 ft 443 kts 332°
2026-04-28 09:43 41.07314 18.43085 33986 ft 442 kts 332°
2026-04-28 09:43 41.10036 18.41187 34238 ft 441 kts 332°
2026-04-28 09:43 41.12755 18.39290 34448 ft 441 kts 332°
2026-04-28 09:44 41.15477 18.37388 34667 ft 440 kts 332°
2026-04-28 09:44 41.18150 18.35519 34908 ft 439 kts 332°
2026-04-28 09:44 41.20862 18.33621 35130 ft 438 kts 332°
2026-04-28 09:44 41.23562 18.31730 35355 ft 437 kts 331°
2026-04-28 09:45 41.26224 18.29863 35582 ft 436 kts 331°
2026-04-28 09:45 41.28909 18.27979 35780 ft 435 kts 331°
2026-04-28 09:45 41.31584 18.26100 35986 ft 434 kts 331°
2026-04-28 09:45 41.34258 18.24219 36097 ft 435 kts 331°
2026-04-28 09:46 41.39605 18.20454 36097 ft 436 kts 331°
2026-04-28 09:46 41.44993 18.16815 36072 ft 433 kts 341°
2026-04-28 09:47 41.47946 18.16079 36114 ft 434 kts 357°
2026-04-28 09:47 41.50961 18.16484 36096 ft 437 kts 12°
2026-04-28 09:47 41.53828 18.17876 36088 ft 441 kts 26°
2026-04-28 09:47 41.56343 18.20250 36120 ft 445 kts 39°
2026-04-28 09:48 41.60865 18.25983 36109 ft 453 kts 41°
2026-04-28 09:48 41.65376 18.31882 36093 ft 457 kts 41°
2026-04-28 09:49 41.69990 18.37807 36096 ft 459 kts 40°
2026-04-28 09:49 41.74612 18.43689 36092 ft 460 kts 40°
2026-04-28 09:50 41.79257 18.49607 36093 ft 459 kts 40°
2026-04-28 09:50 41.83886 18.55522 36091 ft 458 kts 40°
2026-04-28 09:51 41.88484 18.61353 36095 ft 456 kts 39°
2026-04-28 09:51 41.93655 18.66140 36106 ft 447 kts 22°
2026-04-28 09:52 41.99495 18.68709 36109 ft 440 kts 10°
2026-04-28 09:52 42.05453 18.70515 36100 ft 439 kts
2026-04-28 09:53 42.11399 18.72319 36100 ft 439 kts
2026-04-28 09:53 42.17364 18.74176 36101 ft 439 kts 10°
2026-04-28 09:54 42.23286 18.76046 36101 ft 439 kts 10°
2026-04-28 09:54 42.29250 18.77939 36107 ft 439 kts 10°
2026-04-28 09:55 42.35176 18.79824 36110 ft 440 kts 10°
2026-04-28 09:55 42.41162 18.81730 36107 ft 442 kts 10°
2026-04-28 09:56 42.47154 18.83642 36101 ft 443 kts 10°
2026-04-28 09:56 42.53172 18.85567 36108 ft 443 kts 10°
2026-04-28 09:57 42.59151 18.87482 36103 ft 444 kts
2026-04-28 09:57 42.65187 18.89419 36094 ft 444 kts
2026-04-28 09:58 42.71166 18.91343 36093 ft 444 kts
2026-04-28 09:58 42.77188 18.93285 36096 ft 443 kts
2026-04-28 09:59 42.83189 18.95223 36094 ft 442 kts
2026-04-28 09:59 42.89141 18.97149 36092 ft 441 kts
2026-04-28 10:00 42.95128 18.99090 36108 ft 441 kts
2026-04-28 10:00 43.01100 19.01029 36095 ft 441 kts
2026-04-28 10:01 43.06059 19.02643 36094 ft 440 kts
2026-04-28 10:01 43.12988 19.04904 36090 ft 440 kts
2026-04-28 10:02 43.17939 19.06521 36088 ft 439 kts
2026-04-28 10:02 43.23882 19.08466 36088 ft 439 kts
2026-04-28 10:03 43.29842 19.10421 36096 ft 439 kts
2026-04-28 10:03 43.35781 19.12373 36100 ft 440 kts
2026-04-28 10:04 43.41708 19.14324 36103 ft 440 kts
2026-04-28 10:04 43.47700 19.16302 36104 ft 442 kts
2026-04-28 10:05 43.53647 19.18268 36097 ft 442 kts
2026-04-28 10:05 43.59650 19.20258 36114 ft 442 kts
2026-04-28 10:06 43.65609 19.22236 36101 ft 442 kts
2026-04-28 10:06 43.71598 19.24229 36112 ft 442 kts
2026-04-28 10:07 43.77599 19.26229 36122 ft 443 kts
2026-04-28 10:07 43.83560 19.28221 36124 ft 442 kts
2026-04-28 10:08 43.89552 19.30228 36120 ft 442 kts
2026-04-28 10:08 43.95498 19.32222 36123 ft 441 kts
2026-04-28 10:09 44.01475 19.34232 36123 ft 440 kts
2026-04-28 10:09 44.07396 19.36226 36124 ft 440 kts
2026-04-28 10:10 44.13343 19.38234 36133 ft 439 kts
2026-04-28 10:10 44.19294 19.40247 36133 ft 439 kts
2026-04-28 10:11 44.25211 19.42252 36128 ft 439 kts
2026-04-28 10:11 44.31156 19.44271 36125 ft 439 kts
2026-04-28 10:12 44.37080 19.46287 36139 ft 439 kts
2026-04-28 10:12 44.43041 19.48320 36135 ft 440 kts
2026-04-28 10:13 44.49003 19.50357 36142 ft 440 kts
2026-04-28 10:13 44.54929 19.52388 36138 ft 441 kts
2026-04-28 10:14 44.60903 19.54439 36136 ft 441 kts
2026-04-28 10:14 44.66880 19.56494 36143 ft 441 kts
2026-04-28 10:15 44.72823 19.58543 36140 ft 442 kts
2026-04-28 10:15 44.78800 19.60608 36145 ft 441 kts
2026-04-28 10:16 44.84744 19.62665 36147 ft 441 kts
2026-04-28 10:16 44.90726 19.64740 36145 ft 442 kts
2026-04-28 10:17 44.96672 19.66808 36148 ft 442 kts
2026-04-28 10:17 45.02633 19.68884 36148 ft 442 kts
2026-04-28 10:18 45.08608 19.70970 36145 ft 442 kts
2026-04-28 10:18 45.14560 19.73052 36153 ft 442 kts
2026-04-28 10:19 45.20556 19.75156 36156 ft 442 kts
2026-04-28 10:19 45.26505 19.77246 36151 ft 442 kts
2026-04-28 10:20 45.32492 19.79354 36147 ft 442 kts
2026-04-28 10:20 45.38439 19.81454 36155 ft 442 kts
2026-04-28 10:21 45.44417 19.83568 36147 ft 442 kts
2026-04-28 10:21 45.50404 19.85690 36146 ft 442 kts
2026-04-28 10:22 45.56365 19.87808 36156 ft 442 kts
2026-04-28 10:22 45.62343 19.89936 36152 ft 442 kts
2026-04-28 10:23 45.68280 19.92055 36154 ft 442 kts
2026-04-28 10:23 45.74253 19.94191 36150 ft 442 kts
2026-04-28 10:24 45.80193 19.96320 36154 ft 442 kts
2026-04-28 10:24 45.86169 19.98466 36155 ft 442 kts
2026-04-28 10:25 45.92152 20.00620 36156 ft 442 kts
2026-04-28 10:25 45.98088 20.02762 36155 ft 442 kts
2026-04-28 10:26 46.04070 20.04925 36161 ft 442 kts
2026-04-28 10:26 46.10026 20.07083 36161 ft 442 kts
2026-04-28 10:27 46.16014 20.08930 36155 ft 436 kts 360°
2026-04-28 10:27 46.21991 20.08615 36174 ft 427 kts 348°
2026-04-28 10:28 46.27861 20.07549 36166 ft 427 kts 348°
2026-04-28 10:29 46.36723 20.05955 36160 ft 428 kts 348°
2026-04-28 10:29 46.42656 20.04927 36163 ft 428 kts 348°
2026-04-28 10:30 46.48546 20.03916 36158 ft 429 kts 348°
2026-04-28 10:30 46.54492 20.02896 36160 ft 429 kts 348°
2026-04-28 10:31 46.60397 20.01880 36162 ft 429 kts 348°
2026-04-28 10:31 46.66346 20.00854 36168 ft 429 kts 348°
2026-04-28 10:32 46.72247 19.99833 36171 ft 429 kts 348°
2026-04-28 10:32 46.78192 19.98803 36179 ft 429 kts 348°
2026-04-28 10:33 46.84124 19.97772 36179 ft 429 kts 348°
2026-04-28 10:33 46.90018 19.96746 36182 ft 429 kts 348°
2026-04-28 10:34 46.95958 19.95710 36178 ft 428 kts 348°
2026-04-28 10:34 47.01883 19.94674 36180 ft 428 kts 348°
2026-04-28 10:35 47.07779 19.93640 36181 ft 428 kts 348°
2026-04-28 10:35 47.13698 19.92600 36181 ft 428 kts 348°
2026-04-28 10:36 47.19589 19.91563 36183 ft 428 kts 349°
2026-04-28 10:36 47.25518 19.90517 36182 ft 428 kts 348°
2026-04-28 10:37 47.31405 19.89475 36181 ft 428 kts 349°
2026-04-28 10:37 47.37329 19.88425 36183 ft 428 kts 349°
2026-04-28 10:38 47.43225 19.87378 36179 ft 428 kts 349°
2026-04-28 10:38 47.49161 19.86321 36179 ft 428 kts 349°
2026-04-28 10:39 47.55090 19.85263 36175 ft 428 kts 349°
2026-04-28 10:39 47.60983 19.84209 36182 ft 428 kts 349°
2026-04-28 10:40 47.66908 19.83147 36180 ft 428 kts 349°
2026-04-28 10:40 47.72835 19.82082 36181 ft 428 kts 349°
2026-04-28 10:41 47.78730 19.81020 36175 ft 428 kts 349°
2026-04-28 10:41 47.84634 19.79954 36180 ft 428 kts 349°
2026-04-28 10:42 47.90561 19.78882 36173 ft 428 kts 349°
2026-04-28 10:42 47.96483 19.77808 36181 ft 428 kts 349°
2026-04-28 10:43 48.02375 19.76737 36168 ft 428 kts 349°
2026-04-28 10:43 48.08292 19.75659 36174 ft 428 kts 349°
2026-04-28 10:44 48.14212 19.74578 36168 ft 428 kts 349°
2026-04-28 10:44 48.20143 19.73493 36171 ft 428 kts 349°
2026-04-28 10:45 48.26039 19.72411 36167 ft 428 kts 349°
2026-04-28 10:45 48.31962 19.71322 36166 ft 428 kts 349°
2026-04-28 10:46 48.37850 19.70237 36164 ft 427 kts 349°
2026-04-28 10:46 48.43757 19.69146 36165 ft 427 kts 349°
2026-04-28 10:47 48.49621 19.68060 36161 ft 427 kts 349°
2026-04-28 10:47 48.55524 19.66964 36165 ft 427 kts 349°
2026-04-28 10:48 48.61399 19.65871 36161 ft 427 kts 349°
2026-04-28 10:48 48.67305 19.64769 36162 ft 427 kts 349°
2026-04-28 10:49 48.72213 19.63852 36156 ft 427 kts 349°
2026-04-28 10:49 48.78126 19.62745 36163 ft 427 kts 349°
2026-04-28 10:50 48.84040 19.61634 36161 ft 427 kts 349°
2026-04-28 10:50 48.89923 19.60527 36168 ft 428 kts 349°
2026-04-28 10:51 48.95854 19.59408 36145 ft 428 kts 349°
2026-04-28 10:51 49.01741 19.58295 36171 ft 428 kts 349°
2026-04-28 10:52 49.07674 19.57171 36154 ft 428 kts 349°
2026-04-28 10:52 49.13559 19.56053 36175 ft 428 kts 349°
2026-04-28 10:53 49.19481 19.54925 36173 ft 428 kts 349°
2026-04-28 10:53 49.25362 19.53802 36196 ft 427 kts 349°
2026-04-28 10:54 49.31278 19.52670 36193 ft 427 kts 349°
2026-04-28 10:54 49.37158 19.51542 36201 ft 426 kts 349°
2026-04-28 10:55 49.43050 19.50409 36200 ft 425 kts 349°
2026-04-28 10:55 49.48897 19.49282 36227 ft 425 kts 349°
2026-04-28 10:56 49.54770 19.48146 36229 ft 425 kts 349°
2026-04-28 10:56 49.60647 19.47039 36221 ft 426 kts 351°
2026-04-28 10:57 49.66589 19.47202 36234 ft 431 kts 359°
2026-04-28 10:57 49.72594 19.47767 36245 ft 431 kts 359°
2026-04-28 10:58 49.78557 19.48311 36245 ft 432 kts 359°
2026-04-28 10:58 49.84574 19.48826 36270 ft 432 kts 359°
2026-04-28 10:59 49.90567 19.49325 36269 ft 432 kts 359°
2026-04-28 10:59 49.96583 19.49824 36288 ft 432 kts 359°
2026-04-28 11:00 50.02604 19.50324 36284 ft 433 kts 359°
2026-04-28 11:00 50.08589 19.50824 36291 ft 433 kts 359°
2026-04-28 11:01 50.14622 19.51330 36284 ft 433 kts 359°
2026-04-28 11:01 50.20651 19.51836 36291 ft 433 kts 359°
2026-04-28 11:02 50.26642 19.52340 36286 ft 433 kts 359°
2026-04-28 11:02 50.32682 19.52850 36290 ft 433 kts 359°
2026-04-28 11:03 50.38663 19.53356 36287 ft 433 kts 359°
2026-04-28 11:03 50.44692 19.53868 36293 ft 432 kts 359°
2026-04-28 11:04 50.50672 19.54377 36278 ft 432 kts 359°
2026-04-28 11:04 50.56676 19.54889 36292 ft 431 kts 359°
2026-04-28 11:05 50.62662 19.55400 36302 ft 430 kts 359°
2026-04-28 11:05 50.68620 19.55911 36303 ft 430 kts 359°
2026-04-28 11:06 50.74602 19.56425 36309 ft 429 kts 359°
2026-04-28 11:06 50.80577 19.56939 36309 ft 429 kts 359°
2026-04-28 11:07 50.86513 19.57451 36314 ft 429 kts 359°
2026-04-28 11:07 50.92476 19.57968 36314 ft 429 kts 359°
2026-04-28 11:08 50.98446 19.58486 36316 ft 428 kts 359°
2026-04-28 11:08 51.04375 19.59002 36317 ft 428 kts 359°
2026-04-28 11:09 51.10333 19.59521 36322 ft 428 kts 359°
2026-04-28 11:09 51.16258 19.60039 36318 ft 429 kts 359°
2026-04-28 11:10 51.22240 19.60564 36324 ft 429 kts 359°
2026-04-28 11:10 51.28198 19.61088 36324 ft 429 kts 359°
2026-04-28 11:11 51.34132 19.61607 36325 ft 429 kts 359°
2026-04-28 11:11 51.40102 19.62121 36326 ft 429 kts 359°
2026-04-28 11:12 51.46042 19.62634 36326 ft 429 kts 359°
2026-04-28 11:12 51.52013 19.63152 36326 ft 429 kts 359°
2026-04-28 11:13 51.57987 19.63672 36329 ft 429 kts 359°
2026-04-28 11:13 51.63935 19.64191 36324 ft 429 kts 359°
2026-04-28 11:14 51.69882 19.64711 36327 ft 429 kts 359°
2026-04-28 11:14 51.75862 19.65236 36327 ft 429 kts 359°
2026-04-28 11:15 51.81739 19.64747 36329 ft 422 kts 345°
2026-04-28 11:15 51.87346 19.62060 36325 ft 419 kts 339°
2026-04-28 11:16 51.92900 19.59263 36326 ft 420 kts 340°
2026-04-28 11:16 51.98481 19.56526 36325 ft 420 kts 340°
2026-04-28 11:17 52.04083 19.53774 36337 ft 420 kts 340°
2026-04-28 11:17 52.09690 19.51004 36330 ft 420 kts 340°
2026-04-28 11:18 52.15275 19.48239 36333 ft 420 kts 340°
2026-04-28 11:18 52.20871 19.45461 36330 ft 420 kts 340°
2026-04-28 11:19 52.26480 19.42670 36331 ft 420 kts 340°
2026-04-28 11:19 52.32048 19.39892 36330 ft 420 kts 340°
2026-04-28 11:20 52.37659 19.37084 36221 ft 422 kts 340°
2026-04-28 11:20 52.40477 19.35670 35950 ft 422 kts 340°
2026-04-28 11:20 52.43244 19.34282 35710 ft 419 kts 340°
2026-04-28 11:20 52.46036 19.32878 35471 ft 418 kts 340°
2026-04-28 11:21 52.48823 19.31475 35243 ft 419 kts 340°
2026-04-28 11:21 52.51609 19.30071 35006 ft 419 kts 340°
2026-04-28 11:21 52.54394 19.28665 34774 ft 419 kts 340°
2026-04-28 11:21 52.57189 19.27253 34544 ft 419 kts 340°
2026-04-28 11:22 52.59943 19.25859 34326 ft 419 kts 340°
2026-04-28 11:22 52.62731 19.24446 34047 ft 418 kts 340°
2026-04-28 11:22 52.65519 19.23030 33767 ft 418 kts 340°
2026-04-28 11:22 52.68294 19.21620 33502 ft 418 kts 340°
2026-04-28 11:23 52.71077 19.20203 33235 ft 417 kts 340°
2026-04-28 11:23 52.73853 19.18788 32965 ft 417 kts 340°
2026-04-28 11:23 52.76610 19.17380 32712 ft 418 kts 340°
2026-04-28 11:23 52.79401 19.15954 32451 ft 418 kts 340°
2026-04-28 11:24 52.82196 19.14522 32198 ft 421 kts 340°
2026-04-28 11:24 52.84997 19.13086 31950 ft 422 kts 340°
2026-04-28 11:24 52.87783 19.11657 31574 ft 422 kts 340°
2026-04-28 11:24 52.90566 19.10228 31094 ft 414 kts 340°
2026-04-28 11:25 52.93307 19.08820 30653 ft 407 kts 340°
2026-04-28 11:25 52.96002 19.07432 30158 ft 404 kts 340°
2026-04-28 11:25 52.98668 19.06055 29629 ft 407 kts 340°
2026-04-28 11:25 53.01382 19.04650 29097 ft 409 kts 340°
2026-04-28 11:26 53.04113 19.03237 28581 ft 410 kts 340°
2026-04-28 11:26 53.06819 19.01836 28072 ft 411 kts 340°
2026-04-28 11:26 53.09553 19.00419 27563 ft 412 kts 340°
2026-04-28 11:26 53.12297 18.99004 27069 ft 412 kts 341°
2026-04-28 11:27 53.15027 18.97602 26565 ft 405 kts 340°
2026-04-28 11:27 53.16802 18.96689 26249 ft 401 kts 340°
2026-04-28 11:27 53.20100 18.94987 25653 ft 393 kts 340°
2026-04-28 11:27 53.22700 18.93630 25191 ft 387 kts 340°
2026-04-28 11:28 53.25255 18.92289 24726 ft 382 kts 340°
2026-04-28 11:28 53.27774 18.90964 24266 ft 377 kts 340°
2026-04-28 11:28 53.30238 18.89667 23814 ft 372 kts 340°
2026-04-28 11:28 53.32702 18.88369 23287 ft 368 kts 340°
2026-04-28 11:29 53.35133 18.87087 22756 ft 364 kts 340°
2026-04-28 11:29 53.37544 18.85815 22252 ft 360 kts 340°
2026-04-28 11:29 53.39932 18.84553 21743 ft 357 kts 340°
2026-04-28 11:29 53.42266 18.83318 21253 ft 354 kts 341°
2026-04-28 11:30 53.44611 18.82076 20776 ft 350 kts 341°
2026-04-28 11:30 53.49223 18.79631 19815 ft 344 kts 341°
2026-04-28 11:30 53.51468 18.78493 19349 ft 337 kts 344°
2026-04-28 11:31 53.53766 18.77843 18881 ft 332 kts 352°
2026-04-28 11:31 53.56057 18.77587 18397 ft 326 kts 354°
2026-04-28 11:31 53.58304 18.77367 17822 ft 321 kts 353°
2026-04-28 11:31 53.60520 18.77148 17255 ft 316 kts 353°
2026-04-28 11:32 53.62681 18.76926 16715 ft 312 kts 353°
2026-04-28 11:32 53.64835 18.76697 16170 ft 307 kts 353°
2026-04-28 11:32 53.66954 18.76468 15631 ft 301 kts 353°
2026-04-28 11:32 53.69001 18.76244 15106 ft 295 kts 353°
2026-04-28 11:33 53.71038 18.76019 14600 ft 290 kts 353°
2026-04-28 11:33 53.73049 18.75796 14073 ft 286 kts 353°
2026-04-28 11:33 53.75006 18.75579 13428 ft 284 kts 353°
2026-04-28 11:33 53.76980 18.75384 12770 ft 284 kts 355°
2026-04-28 11:34 53.78931 18.75414 12483 ft 273 kts 358°
2026-04-28 11:34 53.80784 18.75524 12315 ft 258 kts 358°
2026-04-28 11:34 53.82569 18.75633 11887 ft 256 kts 358°
2026-04-28 11:34 53.84362 18.75732 11539 ft 257 kts 358°
2026-04-28 11:35 53.86126 18.75821 11216 ft 257 kts 358°
2026-04-28 11:35 53.87924 18.75908 10894 ft 257 kts 358°
2026-04-28 11:35 53.89714 18.75991 10572 ft 257 kts 358°
2026-04-28 11:35 53.91509 18.76073 10253 ft 257 kts 358°
2026-04-28 11:36 53.93286 18.76153 9904 ft 258 kts 358°
2026-04-28 11:36 53.95086 18.76238 9554 ft 258 kts 358°
2026-04-28 11:36 53.96282 18.76295 9305 ft 259 kts 358°
2026-04-28 11:36 53.98092 18.76382 8961 ft 260 kts 359°
2026-04-28 11:37 54.00491 18.76498 8496 ft 260 kts 359°
2026-04-28 11:37 54.01716 18.76557 8272 ft 260 kts 359°
2026-04-28 11:37 54.03508 18.76646 7939 ft 261 kts 359°
2026-04-28 11:37 54.05322 18.76733 7609 ft 261 kts 359°
2026-04-28 11:38 54.07122 18.76821 7292 ft 256 kts 359°
2026-04-28 11:38 54.08879 18.76906 6980 ft 250 kts 359°
2026-04-28 11:38 54.10584 18.76990 6712 ft 238 kts 359°
2026-04-28 11:38 54.12208 18.77100 6362 ft 229 kts
2026-04-28 11:39 54.13731 18.77642 6030 ft 224 kts 11°
2026-04-28 11:39 54.15231 18.78349 5741 ft 223 kts 12°
2026-04-28 11:39 54.16724 18.79061 5504 ft 222 kts 12°
2026-04-28 11:39 54.18215 18.79765 5236 ft 220 kts 12°
2026-04-28 11:40 54.19662 18.80432 4951 ft 215 kts 11°
2026-04-28 11:40 54.21103 18.81089 4685 ft 213 kts 11°
2026-04-28 11:40 54.22530 18.81733 4425 ft 211 kts 12°
2026-04-28 11:40 54.23939 18.82373 4162 ft 206 kts 11°
2026-04-28 11:41 54.25298 18.82985 4048 ft 197 kts 12°
2026-04-28 11:41 54.26602 18.83434 3974 ft 190 kts 355°
2026-04-28 11:41 54.27868 18.82848 3928 ft 191 kts 332°
2026-04-28 11:41 54.28906 18.81409 3829 ft 200 kts 307°
2026-04-28 11:42 54.29594 18.79287 3765 ft 207 kts 301°
2026-04-28 11:42 54.30267 18.77085 3692 ft 209 kts 298°
2026-04-28 11:42 54.30871 18.74811 3624 ft 208 kts 296°
2026-04-28 11:42 54.31423 18.72543 3477 ft 207 kts 295°
2026-04-28 11:43 54.31969 18.70287 3274 ft 205 kts 296°
2026-04-28 11:43 54.32459 18.68235 3050 ft 204 kts 295°
2026-04-28 11:43 54.32992 18.66109 2777 ft 199 kts 298°
2026-04-28 11:43 54.33508 18.63959 2520 ft 191 kts 295°
2026-04-28 11:44 54.34002 18.61861 2244 ft 186 kts 296°
2026-04-28 11:44 54.34504 18.59863 1965 ft 176 kts 298°
2026-04-28 11:44 54.34962 18.57987 1741 ft 166 kts 294°
2026-04-28 11:44 54.35383 18.56250 1478 ft 153 kts 298°
2026-04-28 11:45 54.35794 18.54620 1240 ft 146 kts 297°
2026-04-28 11:45 54.36189 18.53034 994 ft 145 kts 297°
2026-04-28 11:45 54.36566 18.51460 804 ft 141 kts 297°
2026-04-28 11:45 54.36946 18.49894 634 ft 145 kts 297°
2026-04-28 11:46 54.37342 18.48293 500 ft 139 kts 297°
2026-04-28 11:46 54.37752 18.46652 741 ft 164 kts 296°
2026-04-28 11:46 54.38220 18.44675 1461 ft 195 kts 296°
2026-04-28 11:46 54.38726 18.42430 2545 ft 196 kts 295°
2026-04-28 11:47 54.39149 18.40338 3265 ft 189 kts 291°
2026-04-28 11:47 54.39218 18.38027 3737 ft 208 kts 261°
2026-04-28 11:47 54.38459 18.35802 3855 ft 229 kts 224°
2026-04-28 11:47 54.36972 18.34657 3814 ft 247 kts 186°
2026-04-28 11:48 54.35312 18.35155 3795 ft 245 kts 150°
2026-04-28 11:48 54.34079 18.37089 3769 ft 238 kts 117°
2026-04-28 11:48 54.33441 18.39663 3745 ft 234 kts 107°
2026-04-28 11:48 54.32893 18.42286 3741 ft 232 kts 104°
2026-04-28 11:49 54.32352 18.44857 3806 ft 229 kts 107°
2026-04-28 11:49 54.31758 18.47410 3773 ft 232 kts 107°
2026-04-28 11:49 54.31168 18.49980 3754 ft 234 kts 108°
2026-04-28 11:49 54.30549 18.52600 3654 ft 238 kts 108°
2026-04-28 11:50 54.29934 18.55226 3656 ft 236 kts 108°
2026-04-28 11:50 54.29314 18.57809 3745 ft 233 kts 108°
2026-04-28 11:50 54.28702 18.60398 3700 ft 236 kts 108°
2026-04-28 11:50 54.28085 18.62947 3765 ft 233 kts 109°
2026-04-28 11:51 54.27444 18.65494 3717 ft 233 kts 106°
2026-04-28 11:51 54.27235 18.68129 3754 ft 219 kts 76°
2026-04-28 11:51 54.27826 18.70443 3594 ft 216 kts 40°
2026-04-28 11:51 54.29139 18.71525 3453 ft 212 kts
2026-04-28 11:52 54.30587 18.71088 3062 ft 217 kts 329°
2026-04-28 11:52 54.31641 18.69324 3036 ft 209 kts 314°
2026-04-28 11:52 54.32520 18.67328 2893 ft 210 kts 304°
2026-04-28 11:52 54.33213 18.65130 2588 ft 208 kts 299°
2026-04-28 11:53 54.33773 18.62906 2284 ft 201 kts 298°
2026-04-28 11:53 54.34300 18.60783 2028 ft 189 kts 296°
2026-04-28 11:53 54.34775 18.58780 1806 ft 176 kts 297°
2026-04-28 11:53 54.35223 18.56891 1579 ft 164 kts 298°
2026-04-28 11:54 54.35659 18.55176 1296 ft 150 kts 297°
2026-04-28 11:54 54.36049 18.53596 1099 ft 141 kts 299°
2026-04-28 11:54 54.36415 18.52066 861 ft 137 kts 297°
2026-04-28 11:54 54.36778 18.50564 689 ft 135 kts 298°
2026-04-28 11:55 54.37147 18.49074 530 ft 138 kts 300°
2026-04-28 11:55 54.37497 18.47684 467 ft 114 kts 294°
2026-04-28 11:55 54.37743 18.46678 456 ft 69 kts 291°
2026-04-28 11:55 54.37878 18.46140 457 ft 37 kts 294°
2026-04-28 11:56 54.38022 18.45804 454 ft 34 kts 321°
2026-04-28 11:56 54.38145 18.45754 454 ft 11 kts 85°
2026-04-28 11:56 54.38120 18.45879 455 ft 11 kts 112°
2026-04-28 11:56 54.38098 18.46002 459 ft 11 kts 86°
2026-04-28 11:57 54.38148 18.46091 459 ft 11 kts 23°
2026-04-28 11:57 54.38174 18.46183 459 ft 9 kts 107°
2026-04-28 11:57 54.38147 18.46289 457 ft 10 kts 114°
2026-04-28 11:57 54.38118 18.46401 458 ft 10 kts 114°
2026-04-28 11:58 54.38108 18.46449 456 ft 0 kts 110°
2026-04-28 11:58 54.38101 18.46477 459 ft 5 kts 113°
2026-04-28 11:58 54.38095 18.46529 459 ft 4 kts 61°
2026-04-28 11:58 54.38118 18.46552 458 ft 3 kts 23°
2026-04-28 11:59 54.38132 18.46561 459 ft 1 kts 23°
2026-04-28 11:59 54.38133 18.46562 459 ft 0 kts 23°